Tracking 17558 objects as of 14-February-2016
HD Live streaming from Space Station
objects crossing your sky now

COSMOS 2251 DEB

Track COSMOS 2251 DEB now!
10-day predictions


NORAD ID: 37120
Int'l Code: 1993-036BGS
Perigee: 734.3 km
Apogee: 820.7 km
Inclination: 74.0 °
Period: 100.2 minutes
Semi major axis: 7148 km
RCS: 0.0125 m2 (small)
Launch date: June 16, 1993
Source: Commonwealth of Independent States (former USSR) (CIS)
Launch site: PLESETSK MISSILE AND SPACE COMPLEX (PKMTR)

Note: This is SATELLITE DEBRIS
Your satellite tracking list
Your tracking list is empty





NASA's NSSDC Master Catalog

Two Line Element Set (TLE):
1 37120U 93036BGS 16043.41005492  .00003611  00000-0  12154-2 0  9999
2 37120  74.0182  67.0546 0060416 266.0471  93.3774 14.3641204931841
Source of the keplerian elements: AFSPC

N2YO: 487